| time (UTC) | temp F | wind direction | speed MPH | gust MPH | rain 1hr in | rain 24hr in | rain mn in | humidity % | barometer mb |
| 20260903131523 | 61 | 137 | 1.0 | 0.0 | 0.00 | 0.00 | 0.00 | 63 | 999.3 |
| 20260903130011 | 61 | 177 | 1.0 | 0.0 | 0.00 | 0.00 | 0.00 | 61 | 999.0 |
| 20260903124514 | 60 | 174 | 0.0 | 0.0 | 0.00 | 0.00 | 0.00 | 61 | 998.6 |
| 20260903123010 | 61 | 213 | 2.0 | 0.0 | 0.00 | 0.00 | 0.00 | 57 | 998.5 |
| 20260903121509 | 61 | 136 | 3.0 | 0.0 | 0.00 | 0.00 | 0.00 | 60 | 998.0 |
| 20260903120007 | 61 | 140 | 2.0 | 0.0 | 0.00 | 0.00 | 0.00 | 59 | 997.6 |
| 20260903114507 | 60 | 165 | 3.0 | 0.0 | 0.00 | 0.00 | 0.00 | 66 | 997.2 |
| 20260903113006 | 59 | 138 | 3.0 | 0.0 | 0.00 | 0.00 | 0.00 | 70 | 997.2 |
| 20260903111505 | 59 | 136 | 2.0 | 0.0 | 0.00 | 0.00 | 0.00 | 74 | 997.3 |
| 20260903110004 | 59 | 125 | 1.0 | 0.0 | 0.00 | 0.00 | 0.00 | 74 | 996.5 |
| 20260903104503 | 59 | 128 | 1.0 | 0.0 | 0.00 | 0.00 | 0.00 | 72 | 996.5 |
| 20260903103101 | 60 | 148 | 1.0 | 0.0 | 0.00 | 0.00 | 0.00 | 72 | 996.2 |
| 20260903101604 | 61 | 257 | 2.0 | 0.0 | 0.00 | 0.00 | 0.00 | 62 | 996.2 |
| 20260903100058 | 61 | 189 | 2.0 | 0.0 | 0.00 | 0.00 | 0.00 | 67 | 996.1 |
| 20260903094604 | 63 | 209 | 1.0 | 0.0 | 0.00 | 0.00 | 0.00 | 61 | 995.8 |
| 20260903093055 | 63 | 248 | 1.0 | 0.0 | 0.00 | 0.00 | 0.00 | 61 | 995.8 |
| 20260903091611 | 63 | 241 | 2.0 | 0.0 | 0.00 | 0.00 | 0.00 | 62 | 995.8 |
| 20260903090057 | 63 | 175 | 1.0 | 0.0 | 0.00 | 0.00 | 0.00 | 65 | 995.6 |
| 20260903084554 | 62 | 237 | 2.0 | 0.0 | 0.00 | 0.00 | 0.00 | 67 | 995.6 |
| 20260903083055 | 62 | 210 | 1.0 | 0.0 | 0.00 | 0.00 | 0.00 | 71 | 995.3 |
| 20260903081549 | 64 | 2 | 2.0 | 0.0 | 0.00 | 0.00 | 0.00 | 69 | 995.0 |
| 20260903080051 | 64 | 185 | 2.0 | 0.0 | 0.00 | 0.00 | 0.00 | 67 | 995.9 |
| 20260903074551 | 63 | 158 | 3.0 | 0.0 | 0.00 | 0.00 | 0.00 | 72 | 996.4 |
| 20260903073046 | 65 | 137 | 2.0 | 0.0 | 0.00 | 0.00 | 0.00 | 65 | 996.0 |
| 20260903071547 | 64 | 191 | 1.0 | 0.0 | 0.00 | 0.00 | 0.00 | 68 | 996.2 |
| 20260903070042 | 64 | 201 | 2.0 | 0.0 | 0.00 | 0.00 | 0.00 | 69 | 996.6 |
| 20260903064541 | 64 | 237 | 2.0 | 0.0 | 0.00 | 0.00 | 0.00 | 70 | 996.8 |
| 20260903063043 | 65 | 180 | 1.0 | 0.0 | 0.00 | 0.00 | 0.00 | 67 | 996.8 |
| 20260903061541 | 65 | 147 | 2.0 | 0.0 | 0.00 | 0.00 | 0.00 | 69 | 996.5 |
| 20260903060041 | 65 | 108 | 2.0 | 0.0 | 0.00 | 0.00 | 0.00 | 69 | 996.3 |
| 20260903054536 | 64 | 162 | 1.0 | 0.0 | 0.00 | 0.00 | 0.08 | 74 | 996.7 |
| 20260903053050 | 63 | 252 | 2.0 | 0.0 | 0.00 | 0.00 | 0.08 | 80 | 996.3 |
| 20260903051536 | 64 | 251 | 2.0 | 0.0 | 0.00 | 0.00 | 0.08 | 76 | 996.0 |
| 20260903050034 | 65 | 154 | 2.0 | 0.0 | 0.00 | 0.00 | 0.08 | 74 | 997.1 |
| 20260903044533 | 64 | 141 | 3.0 | 0.0 | 0.00 | 0.00 | 0.08 | 76 | 997.4 |
| 20260903043035 | 64 | 152 | 2.0 | 0.0 | 0.00 | 0.00 | 0.08 | 79 | 998.0 |
| 20260903041533 | 64 | 116 | 1.0 | 0.0 | 0.00 | 0.00 | 0.08 | 78 | 997.9 |
| 20260903040036 | 63 | 252 | 2.0 | 0.0 | 0.00 | 0.00 | 0.08 | 79 | 998.6 |
| 20260903034531 | 64 | 233 | 2.0 | 0.0 | 0.00 | 0.00 | 0.08 | 79 | 998.6 |
| 20260903033030 | 64 | 48 | 1.0 | 0.0 | 0.00 | 0.00 | 0.08 | 74 | 998.2 |
| 20260903031529 | 65 | 72 | 1.0 | 0.0 | 0.00 | 0.00 | 0.08 | 73 | 997.7 |
| 20260903030028 | 66 | 325 | 4.0 | 0.0 | 0.00 | 0.00 | 0.08 | 70 | 998.6 |
| 20260903024527 | 71 | 356 | 2.0 | 0.0 | 0.00 | 0.00 | 0.07 | 65 | 998.1 |
| 20260903023026 | 75 | 258 | 2.0 | 0.0 | 0.00 | 0.00 | 0.00 | 46 | 997.5 |
| 20260903021526 | 76 | 307 | 1.0 | 0.0 | 0.00 | 0.00 | 0.00 | 43 | 996.0 |
| 20260903020025 | 76 | 9 | 2.0 | 0.0 | 0.00 | 0.00 | 0.00 | 42 | 996.4 |
| 20260903014524 | 77 | 23 | 3.0 | 0.0 | 0.00 | 0.00 | 0.00 | 40 | 996.2 |
| 20260903013026 | 78 | 321 | 2.0 | 0.0 | 0.00 | 0.00 | 0.00 | 40 | 996.1 |
| 20260903011528 | 78 | 15 | 4.0 | 0.0 | 0.00 | 0.00 | 0.00 | 39 | 995.9 |
| 20260903010023 | 79 | 322 | 4.0 | 0.0 | 0.00 | 0.00 | 0.00 | 37 | 996.4 |
| 20260903004525 | 80 | 13 | 2.0 | 0.0 | 0.00 | 0.00 | 0.00 | 37 | 996.1 |
| 20260903003022 | 82 | 342 | 4.0 | 0.0 | 0.00 | 0.00 | 0.00 | 35 | 995.8 |
| 20260903001522 | 83 | 322 | 4.0 | 0.0 | 0.00 | 0.00 | 0.00 | 33 | 995.5 |
| 20260903000022 | 83 | 4 | 4.0 | 0.0 | 0.00 | 0.00 | 0.00 | 33 | 995.8 |
| 20260902234521 | 85 | 318 | 7.0 | 0.0 | 0.00 | 0.00 | 0.00 | 32 | 995.6 |
| 20260902233020 | 86 | 342 | 7.0 | 0.0 | 0.00 | 0.00 | 0.00 | 32 | 995.5 |
| 20260902231523 | 87 | 321 | 3.0 | 0.0 | 0.00 | 0.00 | 0.00 | 30 | 995.3 |
| 20260902230020 | 88 | 146 | 2.0 | 0.0 | 0.00 | 0.00 | 0.00 | 30 | 994.7 |
| 20260902224519 | 88 | 160 | 2.0 | 0.0 | 0.00 | 0.00 | 0.00 | 29 | 994.8 |
| 20260902223019 | 89 | 96 | 1.0 | 0.0 | 0.00 | 0.00 | 0.00 | 28 | 994.6 |
| 20260902221521 | 89 | 90 | 4.0 | 0.0 | 0.00 | 0.00 | 0.00 | 28 | 994.5 |
| 20260902220028 | 89 | 109 | 2.0 | 0.0 | 0.00 | 0.00 | 0.00 | 27 | 993.8 |
| 20260902214517 | 86 | 30 | 3.0 | 0.0 | 0.00 | 0.00 | 0.00 | 28 | 994.3 |
| 20260902213017 | 89 | 15 | 3.0 | 0.0 | 0.00 | 0.00 | 0.00 | 28 | 994.2 |
| 20260902211516 | 89 | 54 | 3.0 | 0.0 | 0.00 | 0.00 | 0.00 | 27 | 994.1 |
| 20260902210036 | 92 | 190 | 3.0 | 0.0 | 0.00 | 0.00 | 0.00 | 25 | 994.0 |
| 20260902204514 | 89 | 100 | 3.0 | 0.0 | 0.00 | 0.00 | 0.00 | 27 | 994.7 |
| 20260902203011 | 88 | 87 | 5.0 | 0.0 | 0.00 | 0.00 | 0.00 | 27 | 995.2 |
| 20260902201511 | 87 | 54 | 5.0 | 0.0 | 0.00 | 0.00 | 0.00 | 28 | 995.8 |
| 20260902200010 | 86 | 67 | 4.0 | 0.0 | 0.00 | 0.00 | 0.00 | 28 | 996.5 |
| 20260902194509 | 87 | 143 | 4.0 | 0.0 | 0.00 | 0.00 | 0.00 | 28 | 996.2 |
| 20260902193008 | 87 | 143 | 4.0 | 0.0 | 0.00 | 0.00 | 0.00 | 28 | 996.6 |
| 20260902191508 | 86 | 121 | 5.0 | 0.0 | 0.00 | 0.00 | 0.00 | 29 | 997.1 |
| 20260902190008 | 85 | 63 | 6.0 | 0.0 | 0.00 | 0.00 | 0.00 | 31 | 997.3 |
| 20260902184507 | 85 | 60 | 5.0 | 0.0 | 0.00 | 0.00 | 0.00 | 30 | 997.6 |
| 20260902183006 | 88 | 108 | 4.0 | 0.0 | 0.00 | 0.00 | 0.00 | 28 | 997.0 |
| 20260902181504 | 88 | 135 | 4.0 | 0.0 | 0.00 | 0.00 | 0.00 | 29 | 997.5 |
| 20260902180116 | 87 | 61 | 5.0 | 0.0 | 0.00 | 0.00 | 0.00 | 30 | 997.9 |
| 20260902174559 | 83 | 67 | 6.0 | 0.0 | 0.00 | 0.00 | 0.00 | 31 | 998.7 |
| 20260902173056 | 82 | 96 | 6.0 | 0.0 | 0.00 | 0.00 | 0.00 | 32 | 999.1 |
| 20260902171554 | 81 | 112 | 5.0 | 0.0 | 0.00 | 0.00 | 0.00 | 34 | 999.2 |
| 20260902170051 | 80 | 113 | 5.0 | 0.0 | 0.00 | 0.00 | 0.00 | 36 | 999.3 |
| 20260902164548 | 79 | 107 | 5.0 | 0.0 | 0.00 | 0.00 | 0.00 | 38 | 999.7 |
| 20260902163046 | 78 | 97 | 5.0 | 0.0 | 0.00 | 0.00 | 0.00 | 38 | 999.7 |
| 20260902161544 | 77 | 117 | 5.0 | 0.0 | 0.00 | 0.00 | 0.00 | 41 | 1000.0 |
| 20260902160051 | 76 | 16 | 3.0 | 0.0 | 0.00 | 0.00 | 0.00 | 43 | 999.6 |
| 20260902154537 | 75 | 93 | 4.0 | 0.0 | 0.00 | 0.00 | 0.00 | 46 | 999.9 |
| 20260902153040 | 74 | 94 | 4.0 | 0.0 | 0.00 | 0.00 | 0.00 | 48 | 1000.2 |
| 20260902151533 | 73 | 115 | 4.0 | 0.0 | 0.00 | 0.00 | 0.00 | 48 | 1000.3 |
| 20260902150030 | 72 | 128 | 4.0 | 0.0 | 0.00 | 0.00 | 0.00 | 49 | 1000.0 |
| 20260902144535 | 71 | 176 | 4.0 | 0.0 | 0.00 | 0.00 | 0.00 | 53 | 1000.2 |
| 20260902143029 | 70 | 126 | 4.0 | 0.0 | 0.00 | 0.00 | 0.00 | 54 | 1000.1 |
| 20260902141523 | 69 | 139 | 3.0 | 0.0 | 0.00 | 0.00 | 0.00 | 54 | 1000.3 |
| 20260902140019 | 67 | 109 | 3.0 | 0.0 | 0.00 | 0.00 | 0.00 | 56 | 1000.0 |
| 20260902134519 | 65 | 148 | 3.0 | 0.0 | 0.00 | 0.00 | 0.00 | 60 | 1000.7 |
| 20260902133018 | 63 | 155 | 3.0 | 0.0 | 0.00 | 0.00 | 0.00 | 62 | 1001.1 |